Flag for Congo Dem.Rep. Weather past 2 weeks in Kinshasa, Congo Dem.Rep.

Now
86 °F

Passing clouds.


Feels Like: 93 °F
Forecast: 75 / 94 °F
Wind: 3 mph from Northwest

Location: Brazzaville / Maya-Maya

Current Time: Feb 1, 2015 at 7:45:31 PM

Latest Report: Feb 1, 2015 at 6:00 PM


Visibility: N/A

Pressure: 29.77 "Hg

Humidity: 66%

Dew point: 73 °F

Location of KinshasaLocation

Historic Weather in Kinshasa — Graph

°F

Kinshasa temperature yesterday

Maximum temperature yesterday: 84 °F (at 11:00 AM)
Minimum temperature yesterday: 75 °F (at 11:59 AM)
Average temperature yesterday: 78 °F

Past Weeks' High & Low Weather Summary

 TemperatureHumidityPressure
High91 °F (Jan 20, 3:00 PM)100% (Jan 29, 5:00 AM)30.04 "Hg (Jan 29, 5:00 AM)
Low68 °F (Jan 29, 5:00 AM)52% (Jan 20, 3:00 PM)29.77 "Hg (Jan 20, 5:00 PM)
Average79 °F79%29.90 "Hg
* Reported Jan 17 6:00 PM — Feb 1 6:00 PM, Kinshasa, Weather by CustomWeather, © 2014

Note: Actual official high and low records may vary slightly from our data, if they occured in-between our weather recording intervals... More about our weather records

Advertising

Kinshasa weather history for previous 24 hours

 ConditionsComfort  
Time TempWeatherWind HumidityBarometerVisibility
6:00 PM
Feb 1
86 °FPassing clouds.3 mph66%29.77 "HgN/A
5:00 PM88 °FPassing clouds.6 mph62%29.77 "HgN/A
4:00 PM90 °FPassing clouds.3 mph59%29.80 "HgN/A
3:00 PM90 °FScattered clouds.3 mph59%29.80 "HgN/A
2:00 PM88 °FScattered clouds.5 mph62%29.83 "HgN/A
1:00 PM84 °FScattered clouds.5 mph70%29.89 "HgN/A
12:00 PM84 °FPartly sunny.5 mph66%29.92 "HgN/A
11:00 AM82 °FPartly sunny.7 mph70%29.95 "HgN/A
10:00 AM79 °FPartly sunny.6 mph79%29.98 "HgN/A
9:00 AM77 °FScattered clouds.7 mph83%29.98 "HgN/A
8:00 AM73 °FPartly sunny.5 mph94%29.95 "HgN/A
7:00 AM73 °FPartly sunny.3 mph89%29.95 "HgN/A
6:00 AM72 °FPassing clouds.2 mph94%29.95 "HgN/A
5:00 AM73 °FPassing clouds.3 mph89%29.92 "HgN/A
4:00 AM73 °FPassing clouds.5 mph89%29.89 "HgN/A
3:00 AM73 °FPassing clouds.3 mph94%29.89 "HgN/A
2:00 AM73 °FPassing clouds.5 mph94%29.92 "HgN/A
1:00 AM73 °FPassing clouds.2 mph94%29.92 "HgN/A
12:00 AM73 °FClear.2 mph89%29.92 "Hg10 mi
11:00 PM
Jan 31
75 °FPassing clouds.2 mph89%29.92 "HgN/A
10:00 PM75 °FThunderstorms. Passing clouds.7 mph89%29.92 "HgN/A
9:00 PM75 °FThunderstorms. Passing clouds.5 mph83%29.95 "HgN/A
8:00 PM75 °FThunderstorms. Passing clouds.3 mph89%29.89 "HgN/A
7:00 PM75 °FThunderstorms. Passing clouds.6 mph89%29.86 "HgN/A
Weather by CustomWeather, © 2014

See weather overviewHow to use our weather pages